Location: Newark
(45.6833°N, 12.6333°E)
Time: 01:33:18
(UTC+00:00)

Envisat - Visible Passes

Search period start: 23 November 2019 00:00
Search period end: 03 December 2019 00:00
Orbit: 764 x 766 km, 98.1° (Epoch: 22 November)

Date Brightness Start Highest point End Pass type
(mag) Time Alt. Az. Time Alt. Az. Time Alt. Az.
23 Nov 5.3 05:13:06 10° NE 05:17:26 28° E 05:21:45 10° SSE visible
23 Nov 3.2 16:29:41 10° SE 16:34:30 45° ENE 16:39:21 10° N visible
23 Nov 5.2 18:09:38 10° SSW 18:13:44 24° W 18:17:51 10° NW visible
24 Nov 6.2 04:37:56 10° ENE 04:40:16 13° E 04:42:34 10° ESE visible
24 Nov 3.8 17:31:47 10° S 17:36:43 51° W 17:41:41 10° NNW visible
25 Nov 4.3 05:38:11 10° NNE 05:43:05 46° E 05:47:58 10° S visible
25 Nov 2.9 16:54:51 10° SSE 16:59:54 77° ENE 17:05:00 10° N visible
25 Nov 5.9 18:36:49 10° WSW 18:39:31 14° W 18:42:14 10° NW visible
26 Nov 5.7 05:02:07 10° NE 05:06:04 22° E 05:09:59 10° SE visible
26 Nov 3.5 16:18:40 10° SE 16:23:18 37° ENE 16:27:57 10° N visible
26 Nov 4.9 17:57:55 10° SSW 18:02:21 30° W 18:06:50 10° NNW visible
27 Nov 3.4 17:20:23 10° S 17:25:25 64° W 17:30:29 10° NNW visible
28 Nov 4.7 05:27:02 10° NNE 05:31:46 37° E 05:36:27 10° SSE visible
28 Nov 3.0 16:43:40 10° SSE 16:48:39 62° ENE 16:53:41 10° N visible
28 Nov 5.7 18:24:41 10° SW 18:28:06 18° W 18:31:33 10° NW visible
29 Nov 5.9 04:51:14 10° NE 04:54:40 18° E 04:58:05 10° SE visible
29 Nov 3.7 16:07:43 10° SE 16:12:06 30° ENE 16:16:30 10° N visible
29 Nov 4.5 17:46:19 10° SSW 17:51:00 37° W 17:55:44 10° NNW visible
30 Nov 3.6 05:52:18 10° NNE 05:57:22 64° ESE 06:02:24 10° S visible
30 Nov 3.1 17:09:02 10° S 17:14:07 80° WSW 17:19:14 10° NNW visible
30 Nov 6.3 18:53:40 10° W 18:53:57 10° W 18:54:15 10° W visible
01 Dec 5.1 05:15:57 10° NNE 05:20:25 30° E 05:24:51 10° SSE visible
01 Dec 3.2 16:32:33 10° SE 16:37:25 49° ENE 16:42:19 10° N visible
01 Dec 5.3 18:12:47 10° SW 18:16:42 22° W 18:20:40 10° NW visible
02 Dec 6.1 04:40:33 10° NE 04:43:15 14° E 04:45:56 10° ESE visible
02 Dec 4.0 15:56:51 10° ESE 16:00:56 25° ENE 16:05:01 10° N visible
02 Dec 4.0 17:34:48 10° S 17:39:41 47° W 17:44:35 10° NNW visible
